[[{"header":{"parameterUnit":"m.s-1","parameterCategory":1,"la1":30.2991,"la2":30.254,"lo1":-89.0895,"lo2":-89.0444,"dy":0.0017,"dx":0.0017,"nx":28,"ny":28,"refTime":"2023-11-04T03:00:00:Z","depth":0,"parameterNumber":2,"parameterNumberName":"U-component_of_WINDS"},"data":[0,0,0,0,0,0,0,0,0,0,0,0,0,0,0,0,0,0,0,0,0,0,0,0,0,0,0,0,0,0,0,0,0,0,0,0,0,0,0,0,0,0,0,0,0,0,0,0,0,0,0,0,0,0,0,0,0,0,-0.7162,-0.7162,0,-0.7222,-0.7223,-0.7223,-0.718,-0.7178,-0.7176,-0.7175,-0.7238,-0.7242,-0.7245,0,0,0,0,0,0,0,0,0,0,0,0,0,-0.701,-0.7013,-0.7162,-0.7162,-0.7163,-0.7222,-0.7223,-0.7224,-0.7181,-0.7178,-0.7176,-0.7174,-0.7237,-0.7241,-0.7245,0,0,0,0,0,0,0,0,0,0,0,0,0,-0.7074,-0.7014,-0.7161,-0.7149,-0.7148,-0.7222,-0.7223,-0.7224,-0.7181,-0.7178,-0.7175,-0.7173,-0.7236,-0.7241,-0.7246,-0.7336,0,0,-0.7262,-0.7264,0,0,0,0,0,0,0,0,-0.707,-0.7079,-0.715,-0.715,-0.7149,-0.7191,-0.7192,-0.7261,-0.7182,-0.7169,-0.7175,-0.7171,-0.7225,-0.7231,-0.7248,-0.7339,-0.7341,-0.7262,-0.7265,-0.7268,-0.7269,0,0,0,0,0,0,0,-0.7066,-0.7076,-0.7186,-0.7151,-0.7151,-0.714,-0.7146,-0.7205,-0.7212,-0.717,-0.7167,-0.7174,-0.7224,-0.7243,-0.725,-0.7342,-0.7262,-0.7267,-0.727,-0.7272,-0.7509,-0.7512,0,0,0,0,0,0,-0.7062,-0.7073,-0.7184,-0.7187,-0.7102,-0.7145,-0.7152,-0.718,-0.7211,-0.7213,-0.7177,-0.7172,-0.7236,-0.7244,-0.7252,-0.7359,-0.7268,-0.7273,-0.7276,-0.7506,-0.751,-0.7513,0,0,0,0,0,0,-0.7059,-0.7073,-0.7181,-0.7129,-0.7142,-0.7151,-0.7183,-0.7183,-0.7202,-0.7217,-0.7218,-0.7195,-0.7234,-0.7244,-0.7315,-0.7361,-0.7275,-0.728,-0.7502,-0.7507,-0.7511,-0.7575,0,0,0,0,0,0,-0.7055,-0.7072,-0.7106,-0.713,-0.7145,-0.7244,-0.7186,-0.7186,-0.7211,-0.7206,-0.7234,-0.7236,-0.7233,-0.7307,-0.732,-0.7366,-0.7284,-0.7498,-0.7504,-0.751,-0.7569,-0.7581,-0.7592,0,0,0,0,0,-0.705,-0.7122,-0.7108,-0.7121,-0.7188,-0.7246,-0.7255,-0.7248,-0.7215,-0.725,-0.7259,-0.7236,-0.7353,-0.7315,-0.7329,-0.7378,-0.7495,-0.7503,-0.7509,-0.7564,-0.7579,-0.7592,0,0,0,0,0,0,-0.7103,-0.7125,-0.711,-0.7192,-0.7217,-0.7239,-0.7282,-0.7265,-0.7301,-0.7294,-0.7285,-0.7292,-0.7366,-0.7378,-0.7336,-0.7466,-0.7419,-0.7429,-0.7455,-0.747,-0.7481,-0.7477,-0.7288,0,0,0,0,0,-0.7124,-0.7169,-0.7186,-0.7257,-0.727,-0.7274,-0.7299,-0.7292,-0.7318,-0.7329,-0.7343,-0.737,-0.7413,-0.7442,-0.7482,-0.757,-0.7575,-0.761,-0.7621,-0.7631,-0.764,-0.7687,-0.7703,-0.7537,-0.7536,-0.7536,0,0,-0.7169,-0.7186,-0.7215,-0.7268,-0.7287,-0.7334,-0.7284,-0.7336,-0.7371,-0.7337,-0.7405,-0.7416,-0.7446,-0.7525,-0.7561,-0.7538,-0.7687,-0.764,-0.7647,-0.7652,-0.7696,-0.7712,-0.7726,-0.7541,-0.754,-0.754,0,0,-0.7274,-0.7292,-0.7353,-0.7373,-0.7402,-0.7404,-0.7418,-0.7442,-0.7448,-0.7516,-0.7492,-0.7533,-0.7607,-0.7629,-0.765,-0.7762,-0.7743,-0.7776,-0.7837,-0.7883,-0.7896,-0.7908,-0.7948,-0.7963,-0.7785,-0.7785,-0.7785,0,-0.7326,-0.7396,-0.7386,-0.744,-0.7464,-0.7435,-0.7497,-0.7516,-0.7558,-0.7575,-0.7548,-0.764,-0.7658,-0.7742,-0.7769,-0.7787,-0.7804,-0.7773,-0.7895,-0.7906,-0.7917,-0.7956,-0.7971,-0.7789,-0.7788,-0.7788,-0.7788,0,-0.7459,-0.7508,-0.7553,-0.7593,-0.7622,-0.768,-0.7679,-0.7709,-0.7699,-0.7703,-0.7772,-0.7792,-0.7836,-0.7855,-0.7846,-0.7938,-0.7923,-0.7896,-0.7849,-0.7937,-0.7973,-0.7988,-0.7794,-0.7793,-0.7792,-0.7791,0,0,-0.7602,-0.7634,-0.7651,-0.7669,-0.7698,-0.7736,-0.7792,-0.7834,-0.7861,-0.7889,-0.7937,-0.7999,-0.7974,-0.7998,-0.799,-0.8031,-0.8119,-0.7998,-0.7999,-0.8021,-0.8222,-0.8244,-0.8261,-0.8105,-0.8108,-0.811,-0.822,0,-0.7709,-0.7807,-0.7799,-0.7891,-0.7936,-0.7908,-0.7957,-0.7981,-0.7986,-0.8025,-0.8031,-0.8076,-0.8039,-0.8053,-0.8092,-0.81,-0.816,-0.8092,-0.815,-0.8152,-0.8145,-0.828,-0.8303,-0.8406,-0.8234,-0.8237,-0.8238,0,-0.7848,-0.7882,-0.7979,-0.8001,-0.8019,-0.8063,-0.8101,-0.8139,-0.8164,-0.8166,-0.8192,-0.8177,-0.8234,-0.8184,-0.8262,-0.8216,-0.8239,-0.8247,-0.825,-0.8257,-0.8202,-0.8291,-0.8438,-0.8454,-0.8261,-0.8259,-0.8257,0,-0.7944,-0.8013,-0.8079,-0.8095,-0.8123,-0.8154,-0.8167,-0.819,-0.8216,-0.8249,-0.8265,-0.8304,-0.8326,-0.8357,-0.8354,-0.8318,-0.8433,-0.8383,-0.8436,-0.8437,-0.8463,-0.8462,-0.8618,-0.8476,-0.8476,-0.8475,-0.8475,0,-0.8066,-0.8126,-0.8123,-0.8164,-0.8231,-0.8221,-0.8287,-0.8297,-0.8317,-0.836,-0.8337,-0.8378,-0.837,-0.8411,-0.8408,-0.8474,-0.8483,-0.8486,-0.8485,-0.8489,-0.8489,-0.8505,-0.8498,-0.8479,-0.8479,-0.8478,-0.8477,0,-0.8185,-0.8184,-0.8255,-0.8275,-0.8281,-0.833,-0.8347,-0.8386,-0.8389,-0.8443,-0.8455,-0.846,-0.8507,-0.8506,-0.8559,-0.8557,-0.8637,-0.8627,-0.8629,-0.8627,-0.8681,-0.8676,-0.8853,-0.8876,-0.8719,-0.872,-0.8721,0,-0.8263,-0.8309,-0.8333,-0.836,-0.8375,-0.8418,-0.8444,-0.8436,-0.8464,-0.8496,-0.8531,-0.8575,-0.861,-0.8686,-0.8694,-0.8734,-0.8726,-0.8785,-0.8732,-0.8734,-0.8728,-0.8726,-0.8731,-0.8796,-0.8798,-0.8799,-0.8801,0,-0.8403,-0.84,-0.8438,-0.8476,-0.8508,-0.8537,-0.8564,-0.8588,-0.8582,-0.8615,-0.8661,-0.8688,-0.8742,-0.8786,-0.8825,-0.8838,-0.8819,-0.8817,-0.8831,-0.8837,-0.8836,-0.8838,-0.8658,-0.8813,-0.8812,-0.8811,-0.881,-0.881,-0.8505,-0.8544,-0.8567,-0.861,-0.8629,-0.8655,-0.8693,-0.87,-0.8739,-0.8782,-0.8774,-0.8827,-0.885,-0.89,-0.8917,-0.8958,-0.8937,-0.8958,-0.8963,-0.8969,-0.8976,-0.8828,-0.8965,-0.8964,-0.8964,-0.8964,-0.8963,0,-0.8644,-0.8657,-0.8697,-0.8735,-0.8769,-0.8747,-0.8775,-0.8805,-0.8852,-0.8875,-0.891,-0.8964,-0.9006,-0.9017,-0.9058,-0.9089,-0.9081,-0.91,-0.9099,-0.9102,-0.8991,-0.8975,-0.9106,-0.9106,-0.9106,-0.9106,-0.9106,-0.9106,-0.8721,-0.8786,-0.8786,-0.8861,-0.8874,-0.8925,-0.8943,-0.8967,-0.8986,-0.9047,-0.9082,-0.9088,-0.9107,-0.9149,-0.9187,-0.9189,-0.9206,-0.9229,-0.9227,-0.9124,-0.911,-0.9096,-0.9081,-0.9232,-0.9232,-0.9335,-0.9336,-0.9336]},{"header":{"parameterUnit":"m.s-1","parameterCategory":1,"la1":30.2991,"la2":30.254,"lo1":-89.0895,"lo2":-89.0444,"dy":0.0017,"dx":0.0017,"nx":28,"ny":28,"refTime":"2023-11-04T03:00:00:Z","depth":0,"parameterNumber":3,"parameterNumberName":"V-component_of_WINDS"},"data":[0,0,0,0,0,0,0,0,0,0,0,0,0,0,0,0,0,0,0,0,0,0,0,0,0,0,0,0,0,0,0,0,0,0,0,0,0,0,0,0,0,0,0,0,0,0,0,0,0,0,0,0,0,0,0,0,0,0,-2.6069,-2.607,0,-2.6093,-2.6093,-2.6093,-2.6075,-2.6074,-2.6074,-2.6073,-2.6095,-2.6096,-2.6098,0,0,0,0,0,0,0,0,0,0,0,0,0,-2.6007,-2.6008,-2.6069,-2.607,-2.607,-2.6093,-2.6093,-2.6093,-2.6075,-2.6074,-2.6073,-2.6073,-2.6095,-2.6096,-2.6098,0,0,0,0,0,0,0,0,0,0,0,0,0,-2.6032,-2.6008,-2.6069,-2.6064,-2.6064,-2.6093,-2.6093,-2.6093,-2.6076,-2.6074,-2.6073,-2.6072,-2.6094,-2.6096,-2.6098,-2.6134,0,0,-2.6104,-2.6105,0,0,0,0,0,0,0,0,-2.6031,-2.6035,-2.6064,-2.6064,-2.6064,-2.608,-2.6079,-2.6107,-2.6076,-2.6071,-2.6073,-2.6072,-2.6091,-2.6093,-2.61,-2.6135,-2.6136,-2.6104,-2.6105,-2.6106,-2.6107,0,0,0,0,0,0,0,-2.6029,-2.6034,-2.6079,-2.6065,-2.6065,-2.6059,-2.6062,-2.6084,-2.6087,-2.6071,-2.607,-2.6073,-2.6091,-2.6098,-2.61,-2.6136,-2.6104,-2.6106,-2.6107,-2.6108,-2.6199,-2.62,0,0,0,0,0,0,-2.6028,-2.6032,-2.6078,-2.6079,-2.6044,-2.6061,-2.6064,-2.6076,-2.6087,-2.6087,-2.6074,-2.6072,-2.6095,-2.6098,-2.6101,-2.6142,-2.6106,-2.6108,-2.6109,-2.6198,-2.6199,-2.62,0,0,0,0,0,0,-2.6027,-2.6033,-2.6077,-2.6055,-2.6061,-2.6064,-2.6077,-2.6077,-2.6085,-2.6089,-2.6089,-2.6081,-2.6095,-2.6098,-2.6125,-2.6143,-2.6109,-2.6111,-2.6196,-2.6198,-2.62,-2.6225,0,0,0,0,0,0,-2.6025,-2.6032,-2.6046,-2.6056,-2.6062,-2.6102,-2.6078,-2.6078,-2.6088,-2.6086,-2.6096,-2.6096,-2.6094,-2.6122,-2.6127,-2.6145,-2.6112,-2.6195,-2.6197,-2.6199,-2.6222,-2.6227,-2.6231,0,0,0,0,0,-2.6023,-2.6052,-2.6047,-2.6053,-2.608,-2.6103,-2.6106,-2.6103,-2.609,-2.6103,-2.6106,-2.6096,-2.614,-2.6125,-2.6131,-2.6149,-2.6194,-2.6196,-2.6199,-2.622,-2.6226,-2.6231,0,0,0,0,0,0,-2.6045,-2.6054,-2.6048,-2.6081,-2.6091,-2.61,-2.6117,-2.611,-2.6123,-2.612,-2.6116,-2.6118,-2.6146,-2.615,-2.6134,-2.6183,-2.6165,-2.6169,-2.6179,-2.6185,-2.6189,-2.6187,-2.6114,0,0,0,0,0,-2.6053,-2.6072,-2.6078,-2.6107,-2.6113,-2.6114,-2.6124,-2.6121,-2.6131,-2.6135,-2.6139,-2.6149,-2.6164,-2.6175,-2.619,-2.6223,-2.6224,-2.6238,-2.6243,-2.6246,-2.625,-2.6266,-2.6272,-2.621,-2.621,-2.621,0,0,-2.6071,-2.6078,-2.609,-2.6112,-2.6119,-2.6137,-2.6118,-2.6138,-2.6151,-2.6137,-2.6163,-2.6167,-2.6177,-2.6207,-2.622,-2.6211,-2.6267,-2.625,-2.6253,-2.6254,-2.6269,-2.6275,-2.628,-2.6211,-2.6211,-2.6211,0,0,-2.6113,-2.6121,-2.6145,-2.6153,-2.6164,-2.6165,-2.6171,-2.618,-2.6182,-2.6208,-2.6197,-2.6212,-2.624,-2.6247,-2.6255,-2.6298,-2.6289,-2.6303,-2.6326,-2.6342,-2.6347,-2.6352,-2.6366,-2.6371,-2.6307,-2.6307,-2.6307,0,-2.6134,-2.6161,-2.6158,-2.6179,-2.6188,-2.6177,-2.6201,-2.6208,-2.6224,-2.623,-2.622,-2.6253,-2.626,-2.629,-2.6301,-2.6308,-2.6313,-2.6302,-2.6347,-2.6351,-2.6355,-2.6368,-2.6374,-2.6308,-2.6308,-2.6308,-2.6308,0,-2.6186,-2.6205,-2.6223,-2.6238,-2.6249,-2.6272,-2.6271,-2.6282,-2.6278,-2.6279,-2.6305,-2.6312,-2.6327,-2.6335,-2.6331,-2.6364,-2.6358,-2.6348,-2.6329,-2.6363,-2.6375,-2.638,-2.631,-2.631,-2.6309,-2.6309,0,0,-2.6242,-2.6254,-2.6261,-2.6267,-2.6278,-2.6293,-2.6314,-2.6329,-2.6339,-2.635,-2.6366,-2.639,-2.638,-2.6388,-2.6385,-2.6399,-2.6431,-2.6386,-2.6386,-2.6393,-2.6467,-2.6474,-2.648,-2.6426,-2.6427,-2.6427,-2.6466,0,-2.6283,-2.632,-2.6317,-2.6352,-2.6369,-2.6358,-2.6376,-2.6384,-2.6386,-2.64,-2.6402,-2.6418,-2.6404,-2.6409,-2.6422,-2.6424,-2.6446,-2.6422,-2.644,-2.644,-2.6436,-2.6487,-2.6494,-2.653,-2.6471,-2.6471,-2.6472,0,-2.6336,-2.6348,-2.6385,-2.6392,-2.6399,-2.6416,-2.6429,-2.6443,-2.6452,-2.6452,-2.6461,-2.6455,-2.6475,-2.6456,-2.6483,-2.6467,-2.6474,-2.6476,-2.6478,-2.6478,-2.6457,-2.6487,-2.6542,-2.6546,-2.648,-2.6479,-2.6479,0,-2.6371,-2.6397,-2.6422,-2.6428,-2.6438,-2.6449,-2.6454,-2.6461,-2.647,-2.6482,-2.6487,-2.6501,-2.6508,-2.6518,-2.6516,-2.6503,-2.6543,-2.6525,-2.6542,-2.6542,-2.655,-2.655,-2.6605,-2.6557,-2.6557,-2.6557,-2.6557,0,-2.6417,-2.6439,-2.6438,-2.6453,-2.6477,-2.6473,-2.6497,-2.65,-2.6507,-2.6522,-2.6513,-2.6527,-2.6524,-2.6537,-2.6535,-2.6557,-2.6561,-2.656,-2.6559,-2.656,-2.656,-2.6564,-2.6561,-2.6559,-2.6558,-2.6558,-2.6558,0,-2.646,-2.646,-2.6486,-2.6493,-2.6495,-2.6513,-2.6518,-2.6532,-2.6533,-2.6551,-2.6555,-2.6556,-2.6572,-2.657,-2.6588,-2.6586,-2.6613,-2.661,-2.661,-2.6609,-2.6626,-2.6624,-2.6685,-2.6692,-2.6641,-2.6641,-2.6642,0,-2.6489,-2.6505,-2.6514,-2.6523,-2.6529,-2.6544,-2.6553,-2.655,-2.6559,-2.657,-2.6582,-2.6596,-2.6608,-2.6632,-2.6634,-2.6647,-2.6643,-2.6664,-2.6645,-2.6645,-2.6642,-2.664,-2.6641,-2.6667,-2.6668,-2.6668,-2.6669,0,-2.6539,-2.6538,-2.6551,-2.6564,-2.6575,-2.6585,-2.6595,-2.6603,-2.66,-2.6611,-2.6627,-2.6635,-2.6653,-2.6667,-2.6679,-2.6683,-2.6675,-2.6675,-2.6679,-2.668,-2.6678,-2.6678,-2.6618,-2.6673,-2.6672,-2.6672,-2.6672,-2.6672,-2.6575,-2.6588,-2.6596,-2.6611,-2.6617,-2.6626,-2.6639,-2.6641,-2.6654,-2.6668,-2.6665,-2.6682,-2.6689,-2.6704,-2.671,-2.6722,-2.6715,-2.6722,-2.6723,-2.6725,-2.6726,-2.6678,-2.6725,-2.6724,-2.6724,-2.6724,-2.6724,0,-2.6623,-2.6627,-2.6641,-2.6654,-2.6665,-2.6657,-2.6667,-2.6676,-2.6692,-2.6699,-2.671,-2.6727,-2.6741,-2.6744,-2.6756,-2.6766,-2.6762,-2.6769,-2.6767,-2.6768,-2.6733,-2.6727,-2.6771,-2.6771,-2.6771,-2.6771,-2.6771,-2.6771,-2.665,-2.6672,-2.6672,-2.6697,-2.6701,-2.6717,-2.6723,-2.673,-2.6736,-2.6756,-2.6767,-2.6768,-2.6774,-2.6786,-2.6798,-2.6798,-2.6803,-2.681,-2.6809,-2.6776,-2.6771,-2.6766,-2.6761,-2.6812,-2.6812,-2.6843,-2.6844,-2.6844]}]]